Location: Hilton Head Island
(32.2163°N, 80.7526°W)
Time: 22:18:19
(UTC-04:00)

Vanguard 2 Rocket - Pass Details

Date: 23 February 2026
Orbit: 553 x 3286 km, 32.9° (Epoch: 13 March)

Event Time Altitude Azimuth Distance (km) Brightness Sun altitude
Rises 09:14:37 0° 221° (SW) 6,336 11.1 26.2°
Reaches altitude 10° 09:18:36 10° 216° (SW) 5,599 11.0 26.9°
Maximum altitude 09:36:04 52° 146° (SE) 3,802 11.4 30.0°
Drops below altitude 10° 09:54:08 10° 78° (ENE) 5,809 11.6 33.0°
Sets 09:58:18 0° 73° (ENE) 6,581 11.7 33.6°
